Regional Weather Roundup
Issued by NWS

Home | Current Version | Previous Version | Graphics & Text | Print | Product List | Glossary On
Versions: 1 2 3 4 5 6 7 8 9 10 11 12 13 14 15 16 17 18 19 20 21 22 23 24 25 26 27 28 29 30 31 32 33 34 35 36 37 38 39 40 41 42 43 44 45 46 47 48 49 50
800
ASUS44 KLIX 012007
RWRLA
LOUISIANA WEATHER ROUNDUP
NATIONAL WEATHER SERVICE NEW ORLEANS LA
300 PM CDT WED APR 01 2015

NOTE: "FAIR" INDICATES FEW OR NO CLOUDS BELOW 12,000 FEET WITH NO
      SIGNIFICANT WEATHER AND/OR OBSTRUCTIONS TO VISIBILITY.
      SKY/WX - SKY CONDITION AND SIGNIFICANT WEATHER.
      TMP - AIR TEMPERATURE.    DP   - DEWPOINT TEMPERATURE.
      RH  - RELATIVE HUMIDITY.  PRES - PRESSURE.
      HX  - HEAT INDEX.         WCI  - WIND CHILL INDEX.

*  THESE STATIONS ARE NOT NWS OR FAA STATIONS AND ARE NOT UNDER
   NWS QUALITY CONTROL.

LAZ040-048-061>063-065-066-069-012100-
SOUTHEAST LOUISIANA

CITY           SKY/WX    TMP DP  RH WIND       PRES   REMARKS
N.O. AUDUBON     N/A     83  67  57 MISG        N/A
N.O. INTL ARPT CLOUDY    80  63  55 S10       30.04F
N.O. LAKEFRONT PTSUNNY   78  66  66 N7        30.04F
SLIDELL        MOSUNNY   81  61  50 S10       30.04F
BATON ROUGE    PTSUNNY   80  60  50 S12       30.02F
BOOTHVILLE     PTSUNNY   77  66  68 S9        30.08F
BELLE CHASSE   PTSUNNY   80  64  58 S13       30.05F
BOGALUSA*        N/A     83  51  32 SW12G17   30.05F
GALLIANO*      MOCLDY    80  64  58 S12       30.07S
NEW ROADS*     MOCLDY    80  61  51 S9        30.01F
GONZALES*      FAIR      81  57  44 SW12G17   30.03F
HAMMOND*       PTSUNNY   82  54  36 S12       30.05F
HOUMA*         MOSUNNY   81  66  61 S17       30.06F
PORT FOURCHON* CLEAR     77  66  69 SE9       30.09F

$$

LAZ041-044-053-054-012100-
SOUTHWEST LOUISIANA

CITY           SKY/WX    TMP DP  RH WIND       PRES   REMARKS
LAKE CHARLES   CLOUDY    78  66  66 S13G22    30.00F
LAFAYETTE      CLOUDY    79  61  53 S15G22    30.03S
PATTERSON      CLOUDY    79  63  57 S15       30.07S
SALT POINT       N/A     75  67  76 VRB5      30.04F
NEW IBERIA     CLOUDY    81  63  54 S20G25    30.05F
CHENAULT AIRPK NOT AVBL

$$

LAZ027-028-012100-
CENTRAL LOUISIANA

CITY           SKY/WX    TMP DP  RH WIND       PRES   REMARKS
FORT POLK      PTSUNNY   78  65  63 S18       29.97F
ALEXANDRIA INT PTSUNNY   80  61  52 S10       29.96F
ALEXANDRIA     PTSUNNY   83  63  50 SW9       29.98F

$$

LAZ001-002-012100-
NORTHWEST LOUISIANA

CITY           SKY/WX    TMP DP  RH WIND       PRES   REMARKS
SHREVEPORT     PTSUNNY   83  59  44 S13G24    29.91F
BARKSDALE AFB  MOSUNNY   82  62  49 S12G22    29.92F
DTN SHREVEPORT PTSUNNY   81  61  50 S7        29.92F

$$

LAZ014-016-012100-
NORTHEAST LOUISIANA

CITY           SKY/WX    TMP DP  RH WIND       PRES   REMARKS
MONROE         CLOUDY    79  64  60 S8        29.96F
TALLULAH       CLOUDY    76  62  62 S10       30.00F

$$




USA.gov is the U.S. government's official web portal to all federal, state and local government web resources and services.